Regional Weather Roundup
Issued by NWS Northern Indiana

Home | Current Version | Previous Version | Graphics & Text | Print | Product List | Glossary On
Versions: 1 2 3 4 5 6 7 8 9 10 11 12 13 14 15 16 17 18 19 20 21 22 23 24 25 26 27 28 29 30 31 32 33 34 35 36 37 38 39 40 41 42 43 44 45 46 47 48 49 50
000
ASUS43 KIWX 170700
RWRIWX

KIWX WEATHER ROUNDUP
NATIONAL WEATHER SERVICE NORTHERN INDIANA
200 AM EST TUE JAN 17 2017

NOTE: "FAIR" INDICATES FEW OR NO CLOUDS BELOW 12,000 FEET WITH NO
SIGNIFICANT WEATHER AND/OR OBSTRUCTIONS TO VISIBILITY.

* THESE STATIONS ARE NOT UNDER NWS QUALITY CONTROL. THEY ALSO MAY NOT
  REPORT WEATHER SUCH AS PRECIPITATION OR FOG.

INZ001>027-170800-
NORTHERN INDIANA

CITY           SKY/WX    TMP DP  RH WIND       PRES   REMARKS
SOUTH BEND     FOG       38  38 100 E9        29.86F VSB 1/2
GOSHEN         CLOUDY    42  39  89 SE9       29.87F FOG
FORT WAYNE     FOG       47  45  93 SE9       29.91F VSB 1
PERU/GRISSOM   DRIZZLE   50  50 100 S10G20    29.84F

$$
INZ028>050-170800-
CENTRAL INDIANA

CITY           SKY/WX    TMP DP  RH WIND       PRES   REMARKS
LAFAYETTE      CLOUDY    53  53 100 SE12      29.82F
KOKOMO*        LGT RAIN  50  49  96 S14       29.87F
MUNCIE*        LGT RAIN  54  52  93 S10       29.90F
INDIANAPOLIS   CLOUDY    55  53  93 S12       29.89F

$$
MIZ043>046-050>051-056>058-064>065-071>073-077>080-170800-
SOUTHWEST LOWER MICHIGAN

CITY           SKY/WX    TMP DP  RH WIND       PRES   REMARKS
BATTLE CREEK   LGT RAIN  37  36  96 E8        29.91F
BENTON HARBOR  LGT RAIN  42  40  92 SE12      29.84F FOG
COLDWATER*     MIX PCPN  37  37 100 SE12      29.90F
HILLSDALE*     RAIN      32  32 100 E13       29.93F WCI  22
HOLLAND        CLOUDY    35  34  96 E8        29.88F WCI  29
GRAND RAPIDS   LGT RAIN  34  33  96 E14       29.91F FOG     WCI  25
KALAMAZOO      LGT RAIN  38  35  89 SE9       29.89F FOG
STURGIS*       RAIN      38  38  99 SE8       29.89F
THREE RIVERS*  LGT RAIN  37  37 100 E8        29.89F

$$
OHZ001>008-015>018-024>025-170800-
NORTHWEST OHIO

CITY           SKY/WX    TMP DP  RH WIND       PRES   REMARKS
DEFIANCE       RAIN      39  36  89 E12       29.92F FOG
FINDLAY        RAIN      45  42  89 SE10      29.97F FOG
TOLEDO EXPRESS RAIN      34  34 100 E8        29.98F FOG     WCI  27
TOLEDO METCALF RAIN      36  36 100 E6        30.00F VSB 1
LIMA           LGT RAIN  49  49 100 S14       29.97F FOG

$$
AND FOR LAKE MICHIGAN COASTAL AND OPEN LAKE BUOY OBSERVATIONS

STATION/POSITION TEMP    WIND        PRES    VSBY  WAVE
                 AIR SEA DIR/SP/G                  HT/PER
                 (F)     (DEG/KT/KT) (MB)    (MI)  (FT/S)
CALUMET HARBOR    44     110/  3/  6 1008.5
BURNS HARBOR      47     140/ 13/ 20 1009.5F

$$
&&




USA.gov is the U.S. government's official web portal to all federal, state and local government web resources and services.